Other Surface Observations
Issued by NWS

Home | Current Version | Previous Version | Text Only | Print | Product List | Glossary On
Versions: 1 2 3 4 5 6 7 8 9 10 11 12 13 14 15 16 17 18 19 20 21 22 23 24 25 26 27 28 29 30 31 32 33 34 35 36 37 38 39 40 41 42 43 44 45 46 47 48 49 50
329
SXUS52 KTAE 231819
OSOTAE
OSOTAE
North Florida/South Alabama/Southwest Georgia Weather Roundup
National Weather Service Tallahassee Florida
200 PM EDT SAT SEP 23 2017

Note: "fair" indicates few or no clouds below 12,000 feet with no
significant weather and/or obstructions to visibility.

!FLZ017-115-028-034-025-231900
...North Florida...

CITY           SKY/WX    TMP DP  RH WIND       PRES   REMARKS
TALLAHASSEE    MOSUNNY   88  69  53 NE13      29.96F HX  92
APALACHICOLA   SUNNY     85  72  65 E14       29.95S HX  91
PERRY          MOSUNNY   87  70  57 NE8       29.96F HX  92
CROSS CITY     MOSUNNY   88  68  51 NE9G18    29.97F HX  91
JACKSONVILLE   PTSUNNY   84  73  69 NE14      29.95F HX  90
$$

!FLZ112-006-005-002-011-231900
...Florida Panhandle...

CITY           SKY/WX    TMP DP  RH WIND       PRES   REMARKS
MARIANNA       MOSUNNY   87  68  52 VRB7      29.96F HX  90
BONIFAY        NOT AVBL
PANAMA CITY NW FAIR      90  64  42 NE10G20   29.94F HX  91
TYNDALL AFB    SUNNY     88  67  49 E9        29.94F HX  91
TYND DRONE APT FAIR      88  68  51 E12       29.94F HX  92
DE FUNIAK SPR  FAIR      85  67  53 NE8       29.98F
EGLIN AFB      MOSUNNY   88  67  49 E7        29.95F HX  90
DESTIN         SUNNY     91  66  43 E7        29.95F HX  93
HURLBURT       MOSUNNY   88  55  31 SE6       29.94F
CRESTVIEW      SUNNY     89  66  46 E9        29.98F HX  91
PENSACOLA      MOSUNNY   89  67  47 SE6       29.96F HX  92
$$

!ALZ063-066-231900
...South Alabama...

CITY           SKY/WX    TMP DP  RH WIND       PRES   REMARKS
DOTHAN         MOSUNNY   88  68  51 NE8       30.02F HX  91
OZARK CAIRNS   MOSUNNY   86  69  56 NE8       29.98F HX  90
FT RUCKER HELI PTSUNNY   84  69  59 E5        29.98F
RUCKER HELI 3  FAIR      85  67  54 E8        29.98F
RUCKER HELI 2  FAIR      87  67  52 SE7       29.97F
FLORALA APT    NOT AVBL
ANDALUSIA      MOSUNNY   91  66  43 E13       29.98F HX  93
TROY           MOSUNNY   87  70  56 E10       30.00F HX  92
EUFALA         FAIR      90  71  53 VRB7      29.99F HX  96
MOBILE         MOSUNNY   88  68  51 E8        29.97F HX  91
$$

!GAZ120>161-231900
...Southwest and South Central Georgia...

CITY           SKY/WX    TMP DP  RH WIND       PRES   REMARKS
THOMASVILLE    FAIR      88  64  45 E12       29.99F
BAINBRIDGE     MOSUNNY   90  72  55 NE10G18   29.97F HX  96
MOODY AFB      SUNNY     87  67  50 E7        29.97F
VALDOSTA       PTSUNNY   86  70  58 NE9       29.97F HX  90
MOULTRIE       SUNNY     86  64  48 E7        29.99F
BLAKELY        PTSUNNY   90  68  48 E7        29.99F HX  93
ALBANY         MOSUNNY   89  67  47 NE15      30.01F HX  92
TIFTON         FAIR      86  67  54 NE8       29.99F
FITZGERALD     FAIR      87  69  54 E9        30.03S HX  91
CORDELE        MOCLDY    91  66  43 E7        30.01F HX  93
AMERICUS       FAIR      88  61  40 E10       30.03F
HOMERVILLE     FAIR      86  68  54 NE7       29.98F
$$

!GMZ750-755-770-775-231900
...Coastal and Buoy Obs...

STATION/POSITION TIME  TEMP    WIND        PRES    VSBY  WAVE
                       AIR SEA DIR/SP/G                  HT/PER
                 (UTC) (F)     (DEG/KT/KT) (MB)    (MI)  (FT/S)
KEATON BEACH     1800   85      40/  7/ 10 1013.4F
CEDAR KEY        1800   85     110/  5/  7 1013.2F
C TOWER          1800   79      80/ 15/ 16 1014.4F
APALACHICOLA BUO 1750   81 83   80/ 12/ 14 1013.1F         3/ 5
PANAMA CITY BUOY 1750   81 83   80/ 14/ 17 1012.9F         4/ 6
MOBILE BUOY      1800   82 84   60/ 12/ 16 1013.4
ORANGE BCH AL BU 1750   81 84   70/ 12/ 14 1014.1F         2/ 4
$$




USA.gov is the U.S. government's official web portal to all federal, state and local government web resources and services.